RH
56 64 65 50 50 38 54 49 50 55 50 56 57 63 57 51 52 55 53 64 92 91 86 79 75 72 72 73 74 80 79 76 78 85 94 97 88 93 89 92 90 92 100 99
64 70 52 51 51 54 51 54 67 62 55 62 67 71 60 59 59 58 57 64 87 89 91 81 77 76 78 78 79 76 79 73 82 92 94 99 98 95 99 99 99 97 100 100
65 57 53 52 62 60 70 62 63 60 62 62 71 47 42 59 62 68 66 72 86 90 90 83 78 80 80 82 78 73 69 64 76 87 85 88 91 92 98 88 86 80 82 77
68 55 62 66 68 59 58 62 68 68 65 53 64 55 39 53 65 70 79 86 89 88 84 82 81 82 83 85 77 66 57 52 54 67 69 79 93 82 69 62 52 42 47 53
71 65 69 72 65 59 68 62 70 70 80 75 65 79 53 65 64 67 82 89 90 89 88 88 84 79 86 83 74 57 49 44 42 42 49 50 50 47 41 40 37 36 36 36
65 52 63 61 66 62 63 70 67 79 78 73 64 80 63 60 58 52 68 86 89 91 90 86 82 82 87 82 71 61 48 44 39 37 38 39 39 40 38 38 38 38 36 33
74 74 63 59 67 63 67 76 74 58 80 68 74 89 70 51 54 54 57 76 89 91 92 91 89 86 87 82 70 63 55 43 40 36 35 34 33 35 36 35 34 35 37 35
77 64 67 61 64 69 78 69 72 32 75 88 82 95 68 56 72 72 74 76 88 91 92 91 86 84 84 83 77 68 65 45 37 34 34 33 32 32 32 34 34 32 31 31
93 94 67 65 62 59 79 84 69 88 90 92 87 71 59 62 74 81 83 86 88 89 89 91 86 83 80 82 80 69 61 41 33 31 33 32 33 34 32 32 32 31 28 28
73 95 69 63 60 65 65 71 82 91 77 84 81 77 74 66 66 75 84 89 87 85 88 91 87 81 78 78 78 74 52 47 30 33 34 34 34 34 35 34 33 32 28 26
70 74 73 64 78 82 85 83 82 81 83 88 84 54 62 60 58 54 62 75 82 85 87 89 86 77 74 76 79 73 61 45 41 33 34 35 35 37 38 38 39 35 29 25
67 80 96 79 66 68 71 75 77 83 74 88 87 75 46 63 60 61 64 68 74 82 85 88 83 79 79 80 80 73 65 50 42 38 34 34 36 39 40 40 40 35 29 29
65 76 88 72 68 73 80 79 73 73 79 86 87 48 50 65 74 75 78 76 76 80 84 87 87 87 83 81 79 74 64 58 46 38 37 36 37 40 40 40 40 33 28 27
59 78 66 60 46 74 86 80 78 72 93 82 86 72 51 44 49 58 72 79 80 80 84 87 89 87 82 78 76 73 65 62 58 43 39 36 36 39 40 42 40 33 28 30
64 64 84 78 76 72 72 73 86 85 73 80 64 78 54 47 45 43 42 52 73 79 84 85 82 83 83 81 75 72 69 66 66 53 39 36 35 39 42 42 40 34 29 31
78 66 75 85 67 80 87 80 79 82 78 79 74 76 50 46 53 54 54 56 64 69 74 74 77 77 80 79 76 73 68 67 68 61 41 37 38 39 42 44 41 32 30 35
77 80 80 74 64 74 58 69 75 74 75 67 74 52 46 46 49 52 50 49 52 54 58 70 74 73 72 74 70 75 62 62 68 63 44 39 39 40 44 45 41 32 34 40
83 75 86 91 70 30 19 36 48 62 56 61 54 46 41 46 49 50 48 48 48 49 52 58 65 69 66 67 72 65 65 64 66 64 46 40 41 42 45 45 38 32 36 40
70 77 84 87 87 45 24 46 53 46 25 48 54 50 51 49 53 40 39 51 50 50 53 53 52 55 59 64 64 69 72 69 67 63 48 42 43 43 46 44 34 32 38 42
80 78 77 88 74 27 14 28 38 35 19 16 44 38 40 45 39 35 31 49 54 52 53 54 53 61 65 61 68 72 73 70 67 62 50 44 44 44 46 39 30 34 41 44
90 88 93 91 91 76 50 39 38 21 17 24 34 35 35 47 40 34 47 54 52 54 52 51 54 63 64 66 68 71 72 70 62 60 49 47 46 46 42 32 32 39 43 49
86 96 96 89 97 61 51 44 30 24 32 34 39 39 40 44 47 50 50 54 59 63 55 51 58 56 56 61 67 70 70 64 62 54 49 48 47 44 35 31 37 42 48 53
59 60 73 78 67 46 44 43 35 42 47 47 48 43 49 52 48 51 55 57 61 61 60 58 62 60 56 56 61 67 65 63 56 52 50 48 45 37 33 35 40 47 53 56
47 55 57 46 33 46 44 45 46 43 39 43 45 48 50 51 51 54 57 62 64 57 58 57 65 66 62 57 59 61 60 57 54 52 49 45 39 35 37 41 46 53 54 55
46 53 50 54 41 44 31 38 41 43 52 57 54 54 51 52 53 57 60 60 59 58 54 56 64 68 64 60 58 56 56 55 53 50 46 41 38 41 42 47 50 53 50 52
64 50 53 54 46 53 58 56 59 66 61 60 64 62 53 52 56 56 62 60 62 63 60 65 67 71 68 66 59 56 54 52 50 47 43 40 38 39 44 50 52 53 68 75
Wind_Speed
5 8 4 3 2 3 7 6 5 0 1 1 4 7 11 9 6 10 9 7 8 7 6 2 3 6 8 9 12 13 14 14 15 14 13 12 14 13 13 15 16 16 15 17
7 5 1 3 5 7 6 6 3 2 1 1 5 12 12 6 6 7 10 9 9 6 5 5 1 3 6 8 10 12 11 12 12 9 8 4 8 8 9 11 15 17 17 17
6 2 2 4 6 7 5 5 3 3 3 2 7 8 4 3 3 2 3 4 6 8 7 5 3 2 4 6 9 10 10 11 11 9 8 7 5 8 13 14 15 17 17 19
7 4 5 6 6 3 3 2 3 4 4 2 4 4 6 3 6 3 3 5 7 7 5 4 5 4 3 5 6 6 8 10 12 11 12 11 10 10 11 13 15 18 17 16
3 3 5 7 1 2 3 3 4 3 4 3 1 3 7 3 6 7 8 8 7 7 6 7 7 5 1 3 3 5 6 8 11 12 11 12 13 13 12 13 13 15 15 17
4 1 3 3 3 4 4 5 6 4 3 2 1 3 6 4 5 1 3 8 8 7 7 7 6 5 4 1 1 3 5 6 7 7 9 9 10 10 9 10 12 12 14 16
5 4 3 3 5 4 6 5 3 4 3 5 2 1 10 6 5 3 3 7 8 7 7 6 7 9 6 5 3 2 1 1 3 5 6 7 7 6 7 8 9 10 12 15
4 4 1 1 1 4 3 4 4 5 2 4 2 6 6 3 1 1 1 3 6 7 6 7 10 10 10 10 8 5 3 2 1 1 1 2 2 2 5 6 7 9 10 11
4 5 2 2 1 3 2 1 3 5 2 2 3 7 9 4 6 4 6 5 8 8 7 7 11 12 13 11 10 8 5 4 4 4 3 2 1 0 1 3 5 7 8 9
5 4 1 1 3 3 2 5 3 2 1 4 5 6 5 3 3 6 8 9 8 7 7 7 10 14 15 14 12 11 9 9 8 8 7 5 5 4 3 3 4 6 8 10
4 3 2 2 3 6 2 1 3 3 3 3 3 6 6 5 4 6 7 7 7 8 7 7 12 18 18 17 16 16 12 11 12 10 9 9 9 7 6 4 4 5 7 9
0 4 3 5 1 3 4 5 5 3 3 1 2 7 2 5 4 4 7 6 5 6 7 6 13 17 19 20 19 19 16 16 13 13 13 12 11 9 7 5 4 4 6 7
4 1 2 5 4 2 3 5 4 4 3 5 4 6 1 4 6 6 8 8 7 6 7 7 10 14 20 23 23 21 20 20 17 17 17 15 13 12 9 7 5 6 7 8
3 2 4 5 3 4 4 5 5 6 3 3 7 9 8 8 8 8 8 9 9 8 8 8 8 15 24 29 30 28 26 22 21 19 19 18 16 14 11 8 6 7 8 8
3 1 1 5 8 4 5 6 9 11 10 8 4 9 10 7 8 9 8 7 8 9 9 11 12 12 22 26 31 32 30 26 23 22 22 22 17 14 12 10 9 8 9 9
3 1 1 5 2 6 6 10 11 10 11 16 16 26 20 21 9 7 10 9 10 10 10 11 12 15 20 27 30 34 35 32 26 26 27 22 18 15 14 12 10 10 9 9
2 2 3 5 3 6 7 9 14 5 5 12 14 19 8 11 9 8 10 9 10 11 10 9 12 17 24 27 34 31 38 34 28 28 28 23 19 16 14 12 10 10 9 9
4 3 2 4 5 2 4 3 4 10 8 14 10 13 14 8 8 12 10 10 10 9 10 9 11 18 26 28 28 35 33 31 28 29 29 23 21 18 16 14 11 10 9 9
2 4 1 1 2 7 2 3 5 6 5 6 11 13 9 7 7 7 4 6 10 9 8 15 20 22 22 23 27 28 29 28 27 30 31 26 22 19 17 15 12 10 9 9
4 4 3 1 3 4 3 1 2 2 4 1 5 5 5 4 8 5 5 4 7 11 15 17 18 17 18 21 19 21 26 28 30 31 33 26 21 20 18 13 11 9 9 9
3 1 4 2 4 8 6 3 1 3 4 4 2 6 4 4 6 7 7 8 8 13 17 14 14 15 17 16 15 21 23 27 31 27 24 22 19 18 14 12 11 9 9 9
6 6 4 4 2 6 6 3 3 3 4 4 6 7 7 9 11 9 12 9 9 10 16 17 14 16 14 11 12 18 23 24 21 20 22 20 18 15 13 11 10 10 10 11
3 5 5 9 6 3 2 4 3 2 4 6 6 11 8 9 11 10 9 8 7 12 18 18 15 16 16 13 12 16 18 15 18 21 20 19 17 14 12 11 9 10 10 12
4 4 3 1 1 3 10 6 5 5 5 10 12 11 9 11 10 9 8 7 6 13 15 16 15 17 20 15 12 13 11 16 19 19 19 17 16 13 11 10 9 11 12 12
4 5 4 5 6 8 2 1 6 12 13 13 9 8 12 9 10 7 6 7 8 13 17 18 18 20 23 17 14 13 13 17 18 17 17 16 14 12 11 11 11 13 13 12
5 5 4 4 3 4 9 7 9 8 13 15 14 15 11 7 9 5 8 9 11 16 20 20 21 20 23 18 17 16 17 18 20 20 19 17 15 14 12 12 12 12 11 12
Wind_Direction
21 70 76 70 80 120 121 108 116 88 69 24 266 276 271 262 231 249 243 218 210 200 186 175 1 354 346 350 354 359 355 1 1 5 5 20 29 24 23 18 12 8 19 24
37 77 359 75 80 86 72 97 48 5 50 46 333 285 262 237 237 216 228 220 202 169 183 189 268 331 348 355 359 1 1 4 5 7 9 17 34 29 38 28 23 28 25 33
100 152 26 86 46 80 45 101 139 155 339 41 336 294 285 226 228 257 230 189 163 179 184 194 225 295 338 356 5 9 10 15 17 24 40 52 64 39 37 37 34 38 39 38
71 352 93 72 71 80 88 2 95 59 57 238 21 273 290 256 269 233 209 182 173 177 180 191 217 250 312 4 15 24 28 32 38 43 49 52 62 60 51 53 54 51 49 48
269 48 76 68 40 70 158 71 58 67 77 37 9 71 269 349 279 243 215 214 204 193 192 205 217 239 275 358 31 45 48 48 46 48 54 62 69 72 70 68 67 60 55 54
87 313 61 120 63 70 119 66 43 51 59 18 329 122 280 213 217 255 206 212 200 200 210 216 221 236 220 215 136 80 55 51 53 52 55 58 62 63 64 58 56 54 50 48
5 351 332 90 74 46 66 58 356 356 9 225 323 60 249 257 235 225 242 233 202 202 208 219 224 224 210 215 196 188 228 48 49 47 54 60 64 62 59 52 45 43 40 37
120 334 11 357 96 152 79 131 150 211 225 274 19 234 250 218 58 200 194 226 193 208 216 217 221 217 215 215 213 223 259 272 339 17 49 60 60 46 42 36 30 32 32 28
120 352 298 215 122 121 164 157 152 102 3 315 251 286 296 232 246 240 237 213 219 219 218 217 222 223 225 224 223 233 249 243 230 219 213 219 239 304 4 353 2 13 14 16
193 94 240 198 130 60 141 150 74 5 82 275 284 275 243 316 248 226 242 239 242 232 224 220 224 231 230 229 228 231 239 236 236 230 229 237 244 247 268 296 333 358 1 358
143 103 205 107 192 180 120 169 62 118 140 185 316 274 217 236 228 215 244 244 237 229 220 216 223 228 227 229 227 230 238 241 239 240 241 240 239 241 250 280 323 343 349 346
148 126 170 202 203 173 164 186 153 133 231 137 127 274 290 271 259 268 273 281 261 235 225 218 223 224 227 227 226 228 236 237 238 240 242 244 244 246 253 262 283 315 333 337
179 45 63 355 9 32 202 195 161 128 107 207 148 261 310 308 298 276 267 270 258 241 234 229 225 218 224 227 227 230 236 238 238 238 239 242 243 245 252 261 277 304 319 324
106 146 174 184 188 136 206 194 184 147 148 200 232 284 279 290 281 283 268 253 252 242 221 222 227 220 221 224 226 229 235 238 240 238 237 240 241 243 247 254 274 296 306 309
87 221 161 257 239 231 226 203 188 201 201 201 219 234 268 250 257 267 263 268 257 251 228 221 225 223 223 226 230 234 238 239 239 235 236 240 242 241 242 246 264 287 301 305
12 245 70 285 251 214 257 235 224 222 238 256 268 278 276 278 272 267 261 263 261 257 245 235 228 228 224 224 228 232 236 237 235 231 233 237 235 234 238 247 263 281 290 294
114 110 54 271 353 329 296 230 199 194 214 223 232 249 281 285 272 260 262 256 254 259 255 242 229 227 230 227 228 226 235 236 232 230 231 230 229 230 236 246 263 278 283 286
125 114 120 265 337 343 240 137 158 196 228 218 258 270 273 278 284 281 260 249 261 255 263 256 244 240 242 241 233 237 235 233 232 230 227 222 220 221 223 232 246 259 269 277
147 132 82 94 259 291 124 195 151 182 281 200 226 265 287 306 325 298 310 239 252 264 266 266 274 266 262 248 243 237 235 230 226 226 222 217 217 218 222 230 243 256 265 274
59 60 110 35 300 248 261 346 176 211 330 83 184 266 274 324 322 267 270 297 294 288 291 296 300 283 265 260 249 234 233 226 224 225 220 212 212 215 223 238 248 255 262 276
135 134 186 207 271 286 255 268 188 19 252 346 244 269 246 239 243 288 299 288 271 278 290 304 307 291 284 277 256 236 234 228 232 226 211 206 209 215 225 235 249 253 266 271
174 152 193 168 216 282 173 65 196 221 304 289 285 281 281 270 283 282 288 282 290 293 304 304 299 299 302 286 255 242 234 238 228 207 197 200 204 210 222 234 247 262 267 274
241 190 182 190 216 254 212 240 230 217 258 287 288 294 278 279 284 282 278 288 284 289 297 299 290 293 292 284 258 242 244 225 198 190 192 196 202 211 222 229 244 252 259 268
236 168 229 6 267 191 254 275 263 280 263 296 286 279 277 273 277 280 287 289 286 295 296 301 293 281 280 278 258 247 235 200 192 191 193 196 205 213 224 235 239 248 257 264
214 148 198 263 308 337 63 32 318 309 308 302 298 291 279 280 279 261 285 296 294 298 303 302 289 276 273 270 248 227 211 200 196 198 199 204 212 217 230 235 241 252 262 262
187 196 172 230 165 198 269 299 314 319 319 310 308 307 301 259 278 294 288 293 299 303 309 306 298 285 277 263 245 226 216 209 204 200 202 207 212 219 227 234 247 250 254 264